Location: Vale
(35.4830°N, 81.3830°W)
Time: 03:46:04
(UTC-04:00)

Amateur Radio Satellites - All Passes

Search period start: 05 September 2015 03:16
Search period end: 06 September 2015 03:16
Location: Vale, 35.4830°N, 81.3830°W

Satellite Date Start Highest point End Downlink Frequencies (MHz)
Time Altitude Azimuth
ITAMSAT 1 05 Sep 03:24:09 03:28:53 36° 97° (E) 03:33:40 435.822/435.867
KKS-1 05 Sep 03:27:31 03:31:48 50° 74° (ENE) 03:36:09 437.445
BEESAT 05 Sep 03:32:58 03:36:40 22° 266° (W) 03:40:16 436.000
Gurwin Techsat 1B 05 Sep 03:33:01 03:38:14 57° 100° (E) 03:43:28 435.225
VERMONT LUNAR 05 Sep 03:34:27 03:37:17 37° 349° (N) 03:40:05 437.305
JAS-2 05 Sep 03:45:17 03:51:14 36° 94° (E) 03:56:37 435.910
O/OREOS (USA 219) 05 Sep 03:52:39 03:55:27 16° 57° (ENE) 03:58:26 437.305
Oscar 19 05 Sep 03:54:44 03:59:04 26° 291° (WNW) 04:03:16 437.125/150
PHONESAT 2.4 05 Sep 04:09:17 04:12:37 50° 152° (SSE) 04:15:57 2401.200-2431.200
Cosmos 2499 05 Sep 04:11:58 04:20:03 53° 91° (E) 04:28:36 435.465 / 435.565
MOZHAYETS 4 05 Sep 04:14:30 04:17:59 22° 70° (ENE) 04:21:35
STARS 05 Sep 04:33:23 04:37:39 48° 260° (W) 04:41:57 437.465
HORYU 2 05 Sep 04:34:38 04:37:50 20° 94° (E) 04:41:10 437.375
GONETS M04 05 Sep 04:41:09 04:48:37 30° 289° (WNW) 04:55:55
AO-7 05 Sep 05:00:25 05:08:24 51° 101° (E) 05:16:25 29.400- 29.500
ITAMSAT 1 05 Sep 05:04:04 05:08:13 24° 292° (WNW) 05:12:14 435.822/435.867
KKS-1 05 Sep 05:06:47 05:08:47 12° 270° (W) 05:10:32 437.445
VERMONT LUNAR 05 Sep 05:11:21 05:14:03 30° 5° (N) 05:16:45 437.305
Gurwin Techsat 1B 05 Sep 05:14:31 05:17:48 16° 294° (WNW) 05:20:52 435.225
JAS-2 05 Sep 05:30:26 05:36:13 31° 294° (WNW) 05:41:20 435.910
O/OREOS (USA 219) 05 Sep 05:30:47 05:35:11 44° 254° (WSW) 05:39:30 437.305
PHONESAT 2.4 05 Sep 05:47:15 05:50:33 44° 347° (NNW) 05:53:50 2401.200-2431.200
MOZHAYETS 4 05 Sep 05:50:59 05:55:04 30° 264° (W) 05:59:06
Cosmos 2499 05 Sep 06:06:08 06:13:39 31° 289° (WNW) 06:21:09 435.465 / 435.565
HORYU 2 05 Sep 06:10:36 06:14:33 31° 288° (WNW) 06:18:24 437.375
CUBESAT XI-V 05 Sep 06:20:35 06:24:53 41° 73° (ENE) 06:29:13 437.345
CUTE-I 05 Sep 06:25:14 06:26:48 11° 89° (E) 06:28:45 437.470
STRAND 1 05 Sep 06:29:45 06:32:26 15° 66° (ENE) 06:35:21 437.568
VERMONT LUNAR 05 Sep 06:47:41 06:50:40 84° 24° (NNE) 06:53:37 437.305
AO-7 05 Sep 06:53:45 07:00:56 33° 297° (WNW) 07:07:55 29.400- 29.500
ISS 05 Sep 07:07:09 07:10:13 41° 134° (SE) 07:13:19 145.825
Cubesat XI-IV 05 Sep 07:18:54 07:23:57 43° 99° (E) 07:29:01 437.490
PHONESAT 2.4 05 Sep 07:25:39 07:28:49 34° 5° (N) 07:31:59 2401.200-2431.200
PRISM 05 Sep 07:53:37 07:57:41 75° 77° (ENE) 08:01:46 437.425
CUBESAT XI-V 05 Sep 07:59:43 08:02:34 16° 269° (W) 08:05:13 437.345
CUTE-I 05 Sep 08:02:11 08:07:30 72° 286° (WNW) 08:12:49 437.470
STRAND 1 05 Sep 08:06:12 08:11:12 58° 259° (W) 08:16:14 437.568
YUBILEINY 05 Sep 08:08:45 08:17:09 48° 76° (ENE) 08:25:33 435.215
VERMONT LUNAR 05 Sep 08:24:58 08:26:46 15° 215° (SW) 08:28:30 437.305
DOVE 4 05 Sep 08:35:23 08:38:28 16° 89° (E) 08:41:45 437.250
AIST 1 05 Sep 08:35:57 08:40:08 59° 279° (W) 08:44:20
BRITE-PL 05 Sep 08:39:54 08:45:27 55° 99° (E) 08:51:02 437.365/2234.400
GOMX 1 05 Sep 08:44:19 08:49:18 35° 95° (E) 08:54:16 467.674
ISS 05 Sep 08:44:21 08:46:47 19° 330° (NNW) 08:49:12 145.825
HO-68 05 Sep 08:47:23 08:52:18 20° 92° (E) 08:57:33 435.675
Cosmos 2491 05 Sep 08:54:10 09:02:27 53° 91° (E) 09:10:50 435.465 / 435.565
CUTE 1.7 + AOD 2 05 Sep 08:59:37 09:01:57 15° 91° (E) 09:04:27 437.475
Cubesat XI-IV 05 Sep 08:59:48 09:03:47 21° 293° (WNW) 09:07:37 437.490
PHONESAT 2.4 05 Sep 09:03:32 09:06:57 81° 21° (NNE) 09:10:20 2401.200-2431.200
SO-50 05 Sep 09:11:12 09:15:38 33° 52° (NE) 09:20:01 436.795
CANX-2 05 Sep 09:13:30 09:16:57 25° 95° (E) 09:20:28 2200.000
SEEDS 05 Sep 09:26:04 09:29:27 24° 95° (E) 09:32:53 437.485
DANDE 05 Sep 09:38:39 09:40:25 11° 60° (ENE) 09:42:58 436.750
COMPASS 1 05 Sep 09:39:32 09:43:02 26° 96° (E) 09:46:34 437.405
CUBEBUG 2 05 Sep 09:40:26 09:41:40 11° 88° (E) 09:43:13 437.445
AAUSAT CUBESAT 2 05 Sep 09:45:19 09:48:46 26° 95° (E) 09:52:16 437.432
Oscar 11 05 Sep 09:59:26 10:02:02 16° 92° (E) 10:04:49 145.826/435.025
YUBILEINY 05 Sep 10:06:05 10:13:43 33° 273° (W) 10:21:06 435.215
PCSat 05 Sep 10:06:27 10:10:52 25° 53° (NE) 10:15:22 145.827
UNISAT 6 05 Sep 10:10:23 10:13:23 17° 68° (ENE) 10:16:32 437.425
DOVE 4 05 Sep 10:11:24 10:16:35 53° 286° (WNW) 10:21:36 437.250
CUSAT 1 05 Sep 10:13:30 10:20:24 31° 70° (ENE) 10:27:26 437.405
BRITE-PL 05 Sep 10:19:34 10:23:34 19° 292° (WNW) 10:27:21 437.365/2234.400
CINEMA 3 05 Sep 10:20:31 10:25:30 84° 100° (E) 10:30:15 145.822/145.860
Cosmos 2504 05 Sep 10:21:33 10:29:25 45° 76° (ENE) 10:36:50 435.465 / 435.565
GOMX 1 05 Sep 10:22:37 10:27:15 27° 290° (WNW) 10:31:44 467.674
HO-68 05 Sep 10:33:29 10:40:37 65° 288° (WNW) 10:47:41 435.675
CUTE 1.7 + AOD 2 05 Sep 10:34:09 10:38:02 36° 286° (WNW) 10:41:52 437.475
TIGRISAT 05 Sep 10:35:38 10:39:42 31° 72° (ENE) 10:43:52 435.000
NANOSAT C BR1 05 Sep 10:39:50 10:40:08 10° 66° (ENE) 10:40:42 145.865
QB50P2 05 Sep 10:41:43 10:43:08 12° 67° (ENE) 10:44:49 145.880/145.840
PHONESAT 2.4 05 Sep 10:42:05 10:44:33 19° 215° (SW) 10:46:59 2401.200-2431.200
CANX-2 05 Sep 10:49:28 10:52:47 22° 289° (WNW) 10:55:59 2200.000
SO-50 05 Sep 10:51:59 10:56:03 26° 249° (WSW) 10:59:57 436.795
Cosmos 2491 05 Sep 10:52:16 10:59:44 30° 289° (WNW) 11:06:59 435.465 / 435.565
ZACube-1 05 Sep 10:52:27 10:56:41 44° 98° (E) 11:00:48 437.345
QB50P1 05 Sep 10:53:23 10:55:52 16° 69° (ENE) 10:58:32 145.935-145.965
ANTELSAT 05 Sep 10:54:22 10:58:55 52° 74° (ENE) 11:03:30 437.575/2403.000
FUNcube-1 05 Sep 10:55:28 10:59:43 46° 98° (E) 11:03:51 145.935
HUMSAT D 05 Sep 10:56:51 10:59:29 17° 92° (E) 11:02:16 437.325/437.525
SEEDS 05 Sep 11:01:50 11:05:09 22° 289° (WNW) 11:08:21 437.485
AUBIESAT-1 05 Sep 11:03:22 11:08:00 56° 70° (ENE) 11:12:31 437.475
DELFI C3 05 Sep 11:08:25 11:12:24 71° 101° (E) 11:16:21 145.870
UWE-3 05 Sep 11:10:33 11:15:06 82° 283° (WNW) 11:19:29 435.000/436.395/437.385
M-CUBED/EXP-1 PRIME 05 Sep 11:13:30 11:18:19 86° 73° (ENE) 11:23:02 437.505
CUBEBUG 2 05 Sep 11:14:19 11:18:50 56° 285° (WNW) 11:23:12 437.445
COMPASS 1 05 Sep 11:15:26 11:18:33 20° 289° (WNW) 11:21:32 437.405
DANDE 05 Sep 11:17:08 11:25:10 61° 78° (ENE) 11:33:34 436.750
AAUSAT CUBESAT 2 05 Sep 11:21:06 11:24:13 21° 289° (WNW) 11:27:15 437.432
Oscar 11 05 Sep 11:34:25 11:38:23 35° 287° (WNW) 11:42:16 145.826/435.025
DX 1 05 Sep 11:35:11 11:38:49 25° 96° (E) 11:42:30 434.975-435.025
BUGSAT 1 05 Sep 11:37:44 11:41:13 28° 72° (ENE) 11:44:48 437.445
UKube-1 05 Sep 11:39:45 11:43:19 25° 96° (E) 11:46:58 .
UNISAT 6 05 Sep 11:45:22 11:49:50 42° 262° (W) 11:54:18 437.425
PCSat 05 Sep 11:49:23 11:54:27 40° 249° (WSW) 11:59:26 145.827
DUCHIFAT 1 05 Sep 11:51:48 11:56:01 74° 77° (ENE) 12:00:17 145.980
CUSAT 1 05 Sep 11:55:22 12:03:20 56° 267° (W) 12:11:02 437.405
POLYITAN 1 05 Sep 11:55:26 11:59:43 88° 78° (ENE) 12:04:03 437.675
POPSAT HIP 1 05 Sep 11:55:59 12:00:14 87° 78° (ENE) 12:04:33 437.405
CUBEBUG 1 05 Sep 12:02:51 12:06:05 20° 94° (E) 12:09:27 437.445
NANOSAT C BR1 05 Sep 12:11:17 12:15:29 61° 259° (W) 12:19:42 145.865
TIGRISAT 05 Sep 12:12:42 12:16:27 23° 266° (W) 12:20:08 435.000
Cosmos 2504 05 Sep 12:14:11 12:21:23 33° 274° (W) 12:28:00 435.465 / 435.565
QB50P2 05 Sep 12:14:27 12:18:36 53° 260° (W) 12:22:49 145.880/145.840
AISAT 05 Sep 12:17:19 12:21:43 52° 100° (E) 12:26:06 437.250
JUGNU 05 Sep 12:19:22 12:22:55 16° 174° (S) 12:26:28 437.505
ESTCUBE 1 05 Sep 12:22:59 12:27:17 43° 99° (E) 12:31:35 437.505/2401.250
HO-68 05 Sep 12:25:56 12:27:12 10° 305° (NW) 12:27:55 435.675
QB50P1 05 Sep 12:27:28 12:31:26 38° 262° (W) 12:35:25 145.935-145.965
ZACube-1 05 Sep 12:30:09 12:32:39 15° 292° (WNW) 12:34:56 437.345
HUMSAT D 05 Sep 12:31:35 12:35:21 32° 287° (WNW) 12:39:00 437.325/437.525
FUNcube-1 05 Sep 12:33:18 12:35:38 14° 293° (WNW) 12:37:44 145.935
ANTELSAT 05 Sep 12:33:35 12:36:02 13° 270° (W) 12:38:13 437.575/2403.000
AUBIESAT-1 05 Sep 12:40:31 12:42:58 13° 264° (W) 12:45:08 437.475
VELOX 1 05 Sep 12:43:56 12:48:26 80° 284° (WNW) 12:52:53 145.980
50 SAT 05 Sep 12:45:40 12:49:25 50° 285° (WNW) 12:53:05 437.505
GONETS M04 05 Sep 12:58:03 13:04:14 22° 67° (ENE) 13:10:52
DANDE 05 Sep 13:01:08 13:07:57 28° 272° (W) 13:14:39 436.750
DX 1 05 Sep 13:11:24 13:14:58 24° 290° (WNW) 13:18:27 434.975-435.025
SPROUT 05 Sep 13:13:38 13:17:41 38° 98° (E) 13:21:44 437.525
BUGSAT 1 05 Sep 13:13:48 13:16:44 18° 267° (W) 13:19:34 437.445
UKube-1 05 Sep 13:15:51 13:19:21 24° 290° (WNW) 13:22:46 .
Oscar 19 05 Sep 13:29:05 13:33:42 35° 71° (ENE) 13:38:25 437.125/150
ISS 05 Sep 13:37:37 13:39:48 17° 29° (NNE) 13:42:02 145.825
CUBEBUG 1 05 Sep 13:38:34 13:42:29 30° 288° (WNW) 13:46:20 437.445
SRMSAT 05 Sep 13:39:22 13:42:29 15° 172° (S) 13:45:39 437.500
JAS-2 05 Sep 13:54:54 13:59:01 16° 60° (ENE) 14:03:33 435.910
AISAT 05 Sep 13:55:40 13:57:52 13° 293° (WNW) 13:59:50 437.250
TISAT 1 05 Sep 13:56:55 14:01:11 69° 101° (E) 14:05:25 437.305
BEESAT 3 05 Sep 13:57:53 14:01:47 49° 116° (ESE) 14:05:44 437.485
BEESAT 05 Sep 14:00:56 14:01:11 10° 89° (E) 14:01:49 436.000
ESTCUBE 1 05 Sep 14:01:05 14:03:49 16° 292° (WNW) 14:06:23 437.505/2401.250
JUGNU 05 Sep 14:07:35 14:11:13 17° 185° (S) 14:14:49 437.505
Cosmos 2499 05 Sep 14:09:58 14:13:56 15° 61° (ENE) 14:18:23 435.465 / 435.565
BEESAT 2 05 Sep 14:17:39 14:21:40 62° 117° (ESE) 14:25:43 435.950
SWISSCUBE 05 Sep 14:24:40 14:28:21 23° 94° (E) 14:32:08 437.505
ITAMSAT 1 05 Sep 14:39:11 14:43:58 41° 72° (ENE) 14:48:49 435.822/435.867
SPROUT 05 Sep 14:50:44 14:53:28 16° 291° (WNW) 14:56:01 437.525
Gurwin Techsat 1B 05 Sep 14:51:01 14:56:15 67° 75° (ENE) 15:01:33 435.225
GONETS M04 05 Sep 14:53:16 15:02:03 72° 266° (W) 15:10:49
ITUPSAT 1 05 Sep 15:05:04 15:09:45 56° 101° (E) 15:14:26 437.325
Oscar 19 05 Sep 15:08:57 15:13:08 24° 266° (W) 15:17:14 437.125/150
ISS 05 Sep 15:13:16 15:16:26 51° 226° (SW) 15:19:35 145.825
RS-15 05 Sep 15:21:31 15:31:41 50° 111° (ESE) 15:42:20 29.354- 29.394
KKS-1 05 Sep 15:23:37 15:25:20 12° 90° (E) 15:27:20 437.445
SRMSAT 05 Sep 15:27:13 15:30:56 17° 182° (S) 15:34:39 437.500
AIST 2 05 Sep 15:29:33 15:33:45 71° 118° (ESE) 15:38:00 435.215
HORYU 2 05 Sep 15:31:02 15:33:16 14° 67° (ENE) 15:35:42 437.375
BEESAT 05 Sep 15:34:50 15:39:35 67° 284° (WNW) 15:44:16 436.000
JAS-2 05 Sep 15:35:19 15:43:03 82° 76° (ENE) 15:50:56 435.910
BEESAT 3 05 Sep 15:37:41 15:40:01 14° 313° (NW) 15:42:13 437.485
AO-7 05 Sep 15:55:51 16:03:51 54° 67° (ENE) 16:11:54 29.400- 29.500
JUGNU 05 Sep 15:58:10 15:59:30 11° 194° (SSW) 16:00:42 437.505
BEESAT 2 05 Sep 15:58:19 16:00:08 12° 314° (NW) 16:01:48 435.950
Cosmos 2499 05 Sep 16:00:12 16:08:44 86° 83° (E) 16:16:35 435.465 / 435.565
SWISSCUBE 05 Sep 16:02:02 16:06:14 31° 289° (WNW) 16:10:23 437.505
ITAMSAT 1 05 Sep 16:19:49 16:23:40 20° 267° (W) 16:27:22 435.822/435.867
STARS 05 Sep 16:26:03 16:30:11 37° 98° (E) 16:34:18 437.465
Gurwin Techsat 1B 05 Sep 16:34:29 16:36:49 12° 271° (W) 16:38:48 435.225
ITUPSAT 1 05 Sep 16:44:45 16:47:13 14° 294° (WNW) 16:49:26 437.325
GONETS M04 05 Sep 16:56:05 16:57:37 10° 282° (WNW) 16:58:14
KKS-1 05 Sep 16:57:58 17:02:20 51° 286° (WNW) 17:06:39 437.445
HORYU 2 05 Sep 17:05:10 17:09:32 49° 261° (W) 17:13:54 437.375
AIST 2 05 Sep 17:11:09 17:12:50 12° 315° (NW) 17:14:20 435.215
SRMSAT 05 Sep 17:16:50 17:19:22 13° 191° (S) 17:21:49 437.500
JAS-2 05 Sep 17:23:48 17:28:56 18° 273° (W) 17:33:40 435.910
RS-15 05 Sep 17:33:53 17:44:16 45° 312° (NW) 17:54:56 29.354- 29.394
CUTE-I 05 Sep 17:43:44 17:46:42 16° 65° (ENE) 17:49:55 437.470
MOZHAYETS 4 05 Sep 17:48:23 17:52:58 79° 103° (ESE) 17:57:31
AO-7 05 Sep 17:49:48 17:56:59 30° 264° (W) 18:03:57 29.400- 29.500
Cosmos 2499 05 Sep 17:56:11 18:00:48 15° 280° (W) 18:04:40 435.465 / 435.565
O/OREOS (USA 219) 05 Sep 18:01:03 18:04:57 30° 104° (ESE) 18:08:57 437.305
STARS 05 Sep 18:03:22 18:06:20 17° 292° (WNW) 18:09:09 437.465
CUBESAT XI-V 05 Sep 18:21:48 18:23:57 13° 90° (E) 18:26:22 437.345
Cubesat XI-IV 05 Sep 18:37:54 18:43:03 53° 73° (ENE) 18:48:14 437.490
AIST 1 05 Sep 18:46:33 18:50:02 24° 75° (ENE) 18:53:36
Cosmos 2491 05 Sep 19:09:12 19:15:22 22° 67° (ENE) 19:21:58 435.465 / 435.565
HO-68 05 Sep 19:16:32 19:18:29 12° 56° (ENE) 19:20:56 435.675
CUTE-I 05 Sep 19:21:07 19:26:21 59° 259° (W) 19:31:36 437.470
DOVE 4 05 Sep 19:39:48 19:40:58 11° 64° (ENE) 19:42:29 437.250
PRISM 05 Sep 19:40:30 19:42:15 13° 92° (E) 19:44:15 437.425
O/OREOS (USA 219) 05 Sep 19:40:48 19:44:25 22° 300° (WNW) 19:47:59 437.305
BRITE-PL 05 Sep 19:48:17 19:52:24 39° 72° (ENE) 19:56:54 437.365/2234.400
GOMX 1 05 Sep 19:50:01 19:53:41 24° 69° (ENE) 19:57:40 467.674
RS-15 05 Sep 19:54:41 20:00:58 16° 343° (NNW) 20:07:05 29.354- 29.394
CUBESAT XI-V 05 Sep 19:57:13 20:01:44 50° 285° (WNW) 20:06:14 437.345
CANX-2 05 Sep 20:04:55 20:06:54 13° 68° (ENE) 20:09:06 2200.000
SEEDS 05 Sep 20:16:44 20:18:29 13° 68° (ENE) 20:20:27 437.485
STRAND 1 05 Sep 20:19:39 20:24:43 61° 101° (E) 20:29:47 437.568
Cubesat XI-IV 05 Sep 20:20:12 20:23:33 16° 269° (W) 20:26:38 437.490
AIST 1 05 Sep 20:24:07 20:27:36 23° 270° (W) 20:31:00
COMPASS 1 05 Sep 20:29:10 20:31:09 14° 69° (ENE) 20:33:19 437.405
AAUSAT CUBESAT 2 05 Sep 20:34:38 20:36:27 13° 68° (ENE) 20:38:27 437.432
HO-68 05 Sep 20:58:03 21:05:08 71° 73° (ENE) 21:12:19 435.675
Cosmos 2491 05 Sep 21:04:27 21:13:10 71° 266° (W) 21:21:53 435.465 / 435.565
YUBILEINY 05 Sep 21:05:17 21:13:50 61° 92° (E) 21:22:30 435.215
DOVE 4 05 Sep 21:13:23 21:18:03 73° 260° (W) 21:23:03 437.250
PRISM 05 Sep 21:14:02 21:17:56 41° 286° (WNW) 21:21:49 437.425
CINEMA 3 05 Sep 21:18:37 21:23:14 54° 74° (ENE) 21:28:04 145.822/145.860
CUTE 1.7 + AOD 2 05 Sep 21:23:14 21:27:31 79° 258° (WSW) 21:31:48 437.475
GOMX 1 05 Sep 21:27:39 21:31:42 30° 266° (W) 21:35:56 467.674
BRITE-PL 05 Sep 21:28:20 21:31:15 16° 270° (W) 21:34:07 437.365/2234.400
CANX-2 05 Sep 21:38:21 21:42:29 45° 261° (W) 21:46:36 2200.000
ZACube-1 05 Sep 21:45:26 21:49:10 26° 71° (ENE) 21:53:00 437.345
FUNcube-1 05 Sep 21:48:10 21:51:57 27° 71° (ENE) 21:55:48 145.935
SEEDS 05 Sep 21:49:48 21:53:54 47° 261° (W) 21:58:00 437.485
DELFI C3 05 Sep 21:52:42 21:56:07 27° 72° (ENE) 21:59:35 145.870
STRAND 1 05 Sep 22:00:41 22:03:28 14° 295° (WNW) 22:06:00 437.568
COMPASS 1 05 Sep 22:02:27 22:06:28 43° 262° (W) 22:10:29 437.405
UWE-3 05 Sep 22:04:00 22:08:31 56° 75° (ENE) 22:13:08 435.000/436.395/437.385
AAUSAT CUBESAT 2 05 Sep 22:07:40 22:11:41 44° 261° (W) 22:15:42 437.432
CUBEBUG 2 05 Sep 22:08:36 22:13:17 83° 77° (ENE) 22:18:05 437.445
RS-15 05 Sep 22:13:36 22:20:12 17° 20° (NNE) 22:27:20 29.354- 29.394
BEESAT 3 05 Sep 22:20:23 22:22:18 13° 46° (NE) 22:24:22 437.485
Oscar 11 05 Sep 22:25:30 22:29:50 70° 259° (W) 22:34:10 145.826/435.025
DX 1 05 Sep 22:28:54 22:31:27 16° 68° (ENE) 22:34:12 434.975-435.025
UKube-1 05 Sep 22:32:40 22:35:09 16° 68° (ENE) 22:37:49 .
BEESAT 2 05 Sep 22:40:24 22:42:55 16° 48° (NE) 22:45:30 435.950
Cosmos 2504 05 Sep 22:47:20 22:54:33 37° 87° (E) 23:02:12 435.465 / 435.565
HO-68 05 Sep 22:48:44 22:53:35 18° 269° (W) 22:58:02 435.675
ANTELSAT 05 Sep 22:51:26 22:53:25 13° 90° (E) 22:55:36 437.575/2403.000
CUBEBUG 1 05 Sep 22:57:49 22:59:23 12° 67° (ENE) 23:01:12 437.445
CINEMA 3 05 Sep 22:58:18 23:00:51 14° 271° (W) 23:03:10 145.822/145.860
YUBILEINY 05 Sep 23:04:07 23:11:19 26° 291° (WNW) 23:18:15 435.215
AISAT 05 Sep 23:12:15 23:16:09 32° 72° (ENE) 23:20:06 437.250
CUSAT 1 05 Sep 23:17:53 23:21:01 21° 84° (E) 23:25:00 437.405
HUMSAT D 05 Sep 23:19:16 23:23:34 71° 259° (WSW) 23:27:54 437.325/437.525
ESTCUBE 1 05 Sep 23:19:59 23:23:45 28° 71° (ENE) 23:27:36 437.505/2401.250
ZACube-1 05 Sep 23:21:34 23:25:26 26° 265° (W) 23:29:15 437.345
SO-50 05 Sep 23:23:24 23:26:49 21° 111° (ESE) 23:30:28 436.795
FUNcube-1 05 Sep 23:24:23 23:28:12 25° 266° (W) 23:31:57 145.935
50 SAT 05 Sep 23:25:33 23:29:22 51° 75° (ENE) 23:33:13 437.505
DELFI C3 05 Sep 23:28:17 23:31:12 18° 267° (W) 23:33:59 145.870
VELOX 1 05 Sep 23:38:17 23:42:36 61° 75° (ENE) 23:47:00 145.980
UNISAT 6 05 Sep 23:40:24 23:44:46 50° 99° (E) 23:49:02 437.425
DUCHIFAT 1 05 Sep 23:40:51 23:43:14 15° 92° (E) 23:45:47 145.980
UWE-3 05 Sep 23:43:27 23:45:27 12° 271° (W) 23:47:10 435.000/436.395/437.385
POLYITAN 1 05 Sep 23:44:52 23:47:46 18° 93° (E) 23:50:48 437.675
POPSAT HIP 1 05 Sep 23:45:11 23:48:03 18° 93° (E) 23:51:03 437.405
AIST 2 05 Sep 23:54:48 23:57:49 19° 50° (NE) 00:00:53 435.215
BEESAT 3 05 Sep 23:56:40 00:00:35 52° 244° (WSW) 00:04:24 437.485
NANOSAT C BR1 05 Sep 23:59:32 00:03:06 26° 96° (E) 00:06:43 145.865
QB50P2 06 Sep 00:02:56 00:06:43 30° 96° (E) 00:10:31 145.880/145.840
DX 1 06 Sep 00:03:21 00:07:24 39° 262° (W) 00:11:29 434.975-435.025
SPROUT 06 Sep 00:05:24 00:08:34 21° 70° (ENE) 00:11:52 437.525
TIGRISAT 06 Sep 00:06:31 00:11:02 83° 282° (WNW) 00:15:24 435.000
UKube-1 06 Sep 00:06:56 00:10:59 39° 262° (W) 00:15:02 .
QB50P1 06 Sep 00:15:17 00:19:21 41° 99° (E) 00:23:24 145.935-145.965
BEESAT 2 06 Sep 00:17:22 00:21:10 41° 245° (WSW) 00:24:54 435.950
AUBIESAT-1 06 Sep 00:21:59 00:25:39 64° 105° (ESE) 00:29:03 437.475
RS-15 06 Sep 00:25:32 00:36:49 48° 50° (NE) 00:48:33 29.354- 29.394
ANTELSAT 06 Sep 00:26:13 00:30:32 46° 286° (WNW) 00:34:43 437.575/2403.000
DANDE 06 Sep 00:26:18 00:29:57 68° 96° (E) 00:34:55 436.750
CUBEBUG 1 06 Sep 00:31:07 00:35:19 52° 260° (W) 00:39:35 437.445
M-CUBED/EXP-1 PRIME 06 Sep 00:32:58 00:36:42 70° 289° (WNW) 00:40:08 437.505
Cosmos 2504 06 Sep 00:38:52 00:46:38 43° 285° (WNW) 00:54:38 435.465 / 435.565
PCSat 06 Sep 00:44:40 00:49:40 40° 111° (ESE) 00:54:44 145.827
TISAT 1 06 Sep 00:46:06 00:49:52 33° 72° (ENE) 00:53:43 437.305
AISAT 06 Sep 00:49:33 00:52:47 19° 267° (W) 00:55:54 437.250
VERMONT LUNAR 06 Sep 00:51:10 00:53:42 25° 148° (SSE) 00:56:15 437.305
ESTCUBE 1 06 Sep 00:57:03 01:00:37 22° 266° (W) 01:04:05 437.505/2401.250
BUGSAT 1 06 Sep 00:57:19 01:01:36 78° 102° (ESE) 01:05:51 437.445
CUSAT 1 06 Sep 00:59:20 01:03:12 30° 290° (WNW) 01:08:07 437.405
SO-50 06 Sep 01:02:36 01:07:06 40° 306° (NW) 01:11:44 436.795
DUCHIFAT 1 06 Sep 01:15:14 01:19:13 38° 287° (WNW) 01:23:08 145.980
UNISAT 6 06 Sep 01:18:54 01:21:07 13° 293° (WNW) 01:23:05 437.425
POLYITAN 1 06 Sep 01:19:54 01:23:45 31° 288° (WNW) 01:27:30 437.675
POPSAT HIP 1 06 Sep 01:20:09 01:24:00 32° 288° (WNW) 01:27:47 437.405
SWISSCUBE 06 Sep 01:28:52 01:32:09 20° 68° (ENE) 01:35:36 437.505
AIST 2 06 Sep 01:32:42 01:36:30 34° 246° (WSW) 01:40:11 435.215
NANOSAT C BR1 06 Sep 01:35:26 01:38:49 22° 290° (WNW) 01:42:04 145.865
QB50P2 06 Sep 01:39:17 01:42:25 19° 290° (WNW) 01:45:25 145.880/145.840
SPROUT 06 Sep 01:40:46 01:44:30 28° 264° (W) 01:48:12 437.525
Oscar 19 06 Sep 01:44:52 01:47:46 16° 91° (E) 01:50:55 437.125/150
QB50P1 06 Sep 01:52:25 01:54:53 15° 292° (WNW) 01:57:10 145.935-145.965
GONETS M04 06 Sep 01:55:44 02:02:26 27° 85° (E) 02:09:29
ITUPSAT 1 06 Sep 02:08:53 02:13:25 46° 73° (ENE) 02:17:59 437.325
TISAT 1 06 Sep 02:22:57 02:25:45 17° 267° (W) 02:28:24 437.305
VERMONT LUNAR 06 Sep 02:26:59 02:29:57 56° 342° (NNW) 02:32:55 437.305
PCSat 06 Sep 02:28:45 02:33:14 25° 307° (NW) 02:37:39 145.827
BEESAT 06 Sep 02:38:03 02:42:49 83° 258° (WSW) 02:47:36 436.000
RS-15 06 Sep 02:38:07 02:49:30 51° 249° (WSW) 03:00:59 29.354- 29.394
Cosmos 2499 06 Sep 02:44:55 02:47:32 12° 79° (ENE) 02:51:00 435.465 / 435.565
JAS-2 06 Sep 02:53:53 02:55:13 11° 83° (E) 02:57:01 435.910
ITAMSAT 1 06 Sep 02:55:55 02:59:22 18° 92° (E) 03:03:01 435.822/435.867
SWISSCUBE 06 Sep 03:05:20 03:09:46 38° 262° (W) 03:14:11 437.505
